Flag for Canada Weather past 2 weeks in New Westminster, British Columbia, Canada

Now
89 °F

Hot.


Feels Like: 86 °F
Forecast: 58 / 83 °F
Wind: 6 mph from West

Location: P. Meadows Coastal Station

Current Time: Aug 1, 2015 at 6:00:50 PM

Latest Report: Aug 1, 2015 at 5:00 PM


Visibility: N/A

Pressure: 29.92 "Hg

Humidity: 26%

Dew point: 50 °F

Location of New WestminsterLocation

Historic Weather in New Westminster — Graph

°F

New Westminster temperature yesterday

Maximum temperature yesterday: 90 °F (at 4:00 PM)
Minimum temperature yesterday: 56 °F (at 6:00 AM)
Average temperature yesterday: 74 °F

Past Weeks' High & Low Weather Summary

 TemperatureHumidityPressure
High91 °F (Jul 18, 5:00 PM)98% (Jul 30, 5:00 AM)30.29 "Hg (Jul 30, 5:00 AM)
Low53 °F (Jul 23, 5:00 AM)20% (Jul 29, 5:00 PM)29.86 "Hg (Jul 22, 8:00 PM)
Average68 °F66%30.03 "Hg
* Reported Jul 17 4:00 PM — Aug 1 4:00 PM, New Westminster, Weather by CustomWeather, © 2015

Note: Actual official high and low records may vary slightly from our data, if they occured in-between our weather recording intervals... More about our weather records

Advertising

New Westminster weather history for previous 24 hours

 ConditionsComfort  
Time TempWeatherWind HumidityBarometerVisibility
4:00 PM
Sat, Aug 1
88 °FPleasantly warm.7 mph30%29.93 "HgN/A
3:00 PM87 °FPleasantly warm.3 mph34%29.95 "HgN/A
2:00 PM85 °FPleasantly warm.3 mph35%29.96 "HgN/A
1:00 PM83 °FPleasantly warm.2 mph38%29.98 "HgN/A
12:00 PM80 °FWarm.3 mph46%30.00 "HgN/A
11:00 AM77 °FMild.2 mph47%30.01 "HgN/A
10:00 AM74 °FMild.2 mph58%30.02 "HgN/A
9:00 AM70 °FMild.3 mph62%30.03 "HgN/A
8:00 AM66 °FMild.1 mph72%30.03 "HgN/A
7:00 AM61 °FCool.No wind80%30.02 "HgN/A
6:00 AM56 °FCool.No wind89%30.00 "HgN/A
5:00 AM57 °FCool.No wind88%29.99 "HgN/A
4:00 AM59 °FCool.2 mph82%29.99 "HgN/A
3:00 AM60 °FCool.1 mph82%29.98 "HgN/A
2:00 AM60 °FCool.1 mph88%29.98 "HgN/A
1:00 AM63 °FMild.No wind84%29.99 "HgN/A
12:00 AM65 °FMild.1 mph74%29.98 "HgN/A
11:00 PM
Fri, Jul 31
66 °FMild.1 mph75%29.98 "HgN/A
10:00 PM70 °FMild.1 mph63%29.97 "HgN/A
9:00 PM75 °FMild.1 mph55%29.96 "HgN/A
8:00 PM82 °FWarm.2 mph42%29.96 "HgN/A
7:00 PM87 °FPleasantly warm.3 mph29%29.97 "HgN/A
6:00 PM89 °FHot.6 mph28%29.98 "HgN/A
Weather by CustomWeather, © 2015

See weather overviewHow to use our weather pages